CARTOSAT-2D

Last updated on Sun Jul 06 2025 00:02:28 GMT+0000 (Coordinated Universal Time)

1 41948U 17008A 25186.58322609 .00004290 00000+0 20701-3 0 9996 2 41948 97.4606 246.2676 0005110 25.4022 334.7463 15.19204176464959
UTC large
Height (km)
Speed (km/s)
/
Latitude / Longitude
Inclination (degrees)
Orbital Period (minutes)
Azimuth
Elevation
Range (km)
Doppler Factor

Next 0 passes for location: London (51.5072 / 0.1276)

Sorry there are no passes over London.